Weather History for Kankakee, IL

Change the Weather History Date:

Saturday, November 6, 2010

  Actual Average Record
Temperature  
Mean Temperature 32 °F -  
Max Temperature 46 °F 51 °F 76 °F (1978)
Min Temperature 19 °F 32 °F 9 °F (1991)
Degree Days  
Heating Degree Days 32    
Moisture  
Dew Point 17 °F    
Average Humidity 56    
Maximum Humidity 86    
Minimum Humidity 27    
Precipitation  
Precipitation 0.00 in - - ()
Sea Level Pressure  
Sea Level Pressure 30.32 in    
Wind  
Wind Speed 3 mph (WSW)    
Max Wind Speed 10 mph    
Max Gust Speed -    
Visibility 10 miles    
Events      
Averages and records for this station are not official NWS values.
T = Trace of Precipitation, MM = Missing Value Source: NWS Daily Summary

Daily Weather History Graph

Daily Weather History Graph

Search for Another Location

Airport:

Trip Planner

Search our weather history database for the weather conditions in past years. The results will help you decide how hot, cold, wet, or windy it might be!

Date:

Astronomy

Nov. 06, 2010 Rise Set
Actual Time 7:28 AM CDT 5:41 PM CDT
Civil Twilight 6:59 AM CDT 6:10 PM CDT
Nautical Twilight 6:26 AM CDT 6:42 PM CDT
Astronomical Twilight 5:54 AM CDT 7:15 PM CDT
Moon 8:06 AM CDT (11/6) 5:47 PM CDT (11/6)
Length of Visible Light 11h 10m
Length of Day
10h 12m
New Moon, 0% of the Moon is Illuminated
Nov 6
New Moon
Nov 13
First Quarter
Nov 21
Full
Nov 28
Last Quarter
Dec 5
New

Hourly Weather History & Observations

Time (CDT) Temp. Windchill Dew Point Humidity Pressure Visibility Wind Dir Wind Speed Gust Speed Precip Events Conditions
12:04 AM 26.6 °F 20.0 °F 17.6 °F 69% 30.19 in 10.0 mi West 5.8 mph - N/A   Scattered Clouds
12:24 AM 24.8 °F 17.9 °F 17.6 °F 74% 30.19 in 10.0 mi West 5.8 mph - N/A   Clear
12:44 AM 24.8 °F 20.5 °F 17.6 °F 74% 30.20 in 10.0 mi WNW 3.5 mph - N/A   Clear
1:04 AM 26.6 °F 20.0 °F 17.6 °F 69% 30.20 in 10.0 mi WNW 5.8 mph - N/A   Scattered Clouds
1:24 AM 26.6 °F 20.0 °F 17.6 °F 69% 30.20 in 10.0 mi WNW 5.8 mph - N/A   Scattered Clouds
1:44 AM 26.6 °F 19.1 °F 17.6 °F 69% 30.20 in 10.0 mi WNW 6.9 mph - N/A   Clear
2:04 AM 24.8 °F 17.9 °F 17.6 °F 74% 30.20 in 10.0 mi WNW 5.8 mph - N/A   Clear
2:24 AM 26.6 °F 22.6 °F 17.6 °F 69% 30.21 in 10.0 mi WNW 3.5 mph - N/A   Clear
2:44 AM 26.6 °F - 17.6 °F 69% 30.22 in 10.0 mi Calm Calm - N/A   Clear
3:04 AM 28.4 °F - 17.6 °F 64% 30.23 in 10.0 mi Calm Calm - N/A   Clear
3:24 AM 28.4 °F - 17.6 °F 64% 30.23 in 10.0 mi Calm Calm - N/A   Clear
3:44 AM 26.6 °F - 17.6 °F 69% 30.24 in 10.0 mi Calm Calm - N/A   Clear
4:04 AM 24.8 °F - 17.6 °F 74% 30.25 in 10.0 mi Calm Calm - N/A   Clear
4:24 AM 23.0 °F - 17.6 °F 80% 30.25 in 10.0 mi Calm Calm - N/A   Clear
4:44 AM 23.0 °F - 17.6 °F 80% 30.26 in 10.0 mi Calm Calm - N/A   Clear
5:04 AM 21.2 °F - 15.8 °F 80% 30.27 in 10.0 mi Calm Calm - N/A   Clear
5:24 AM 21.2 °F - 15.8 °F 80% 30.28 in 10.0 mi Calm Calm - N/A   Clear
5:44 AM 19.4 °F - 15.8 °F 86% 30.29 in 10.0 mi Calm Calm - N/A   Clear
6:04 AM 19.4 °F - 15.8 °F 86% 30.30 in 10.0 mi Calm Calm - N/A   Clear
6:24 AM 19.4 °F - 15.8 °F 86% 30.30 in 10.0 mi Calm Calm - N/A   Clear
6:44 AM 19.4 °F - 15.8 °F 86% 30.31 in 10.0 mi Calm Calm - N/A   Clear
7:04 AM 19.4 °F - 15.8 °F 86% 30.31 in 10.0 mi Calm Calm - N/A   Clear
7:24 AM 19.4 °F - 15.8 °F 86% 30.33 in 10.0 mi Calm Calm - N/A   Clear
7:44 AM 19.4 °F - 15.8 °F 86% 30.34 in 10.0 mi Calm Calm - N/A   Clear
8:04 AM 19.4 °F - 15.8 °F 86% 30.35 in 10.0 mi Calm Calm - N/A   Clear
8:24 AM 24.8 °F - 19.4 °F 80% 30.36 in 10.0 mi Calm Calm - N/A   Clear
8:44 AM 26.6 °F - 19.4 °F 74% 30.37 in 10.0 mi Calm Calm - N/A   Clear
9:04 AM 30.2 °F - 21.2 °F 69% 30.38 in 10.0 mi Calm Calm - N/A   Clear
9:24 AM 33.8 °F - 21.2 °F 60% 30.38 in 10.0 mi Calm Calm - N/A   Clear
9:44 AM 35.6 °F - 21.2 °F 56% 30.39 in 10.0 mi Calm Calm - N/A   Clear
10:04 AM 37.4 °F - 21.2 °F 52% 30.38 in 10.0 mi Calm Calm - N/A   Clear
10:24 AM 39.2 °F 37.0 °F 21.2 °F 49% 30.38 in 10.0 mi West 3.5 mph - N/A   Clear
10:44 AM 39.2 °F - 19.4 °F 45% 30.39 in 10.0 mi Calm Calm - N/A   Clear
11:04 AM 39.2 °F - 19.4 °F 45% 30.39 in 10.0 mi Calm Calm - N/A   Clear
11:24 AM 42.8 °F - 17.6 °F 36% 30.38 in 10.0 mi Calm Calm - N/A   Clear
11:44 AM 42.8 °F 41.1 °F 19.4 °F 39% 30.38 in 10.0 mi South 3.5 mph - N/A   Clear
12:04 PM 44.6 °F 43.1 °F 17.6 °F 34% 30.37 in 10.0 mi WSW 3.5 mph - N/A   Clear
12:24 PM 44.6 °F 42.2 °F 17.6 °F 34% 30.37 in 10.0 mi SSW 4.6 mph - N/A   Clear
12:44 PM 44.6 °F 40.2 °F 17.6 °F 34% 30.36 in 10.0 mi West 8.1 mph - N/A   Clear
1:04 PM 44.6 °F 41.4 °F 15.8 °F 31% 30.37 in 10.0 mi SSW 5.8 mph - N/A   Clear
1:24 PM 44.6 °F 42.2 °F 15.8 °F 31% 30.37 in 10.0 mi SW 4.6 mph - N/A   Clear
1:44 PM 46.4 °F 43.5 °F 15.8 °F 29% 30.36 in 10.0 mi West 5.8 mph - N/A   Clear
2:04 PM 46.4 °F 41.5 °F 15.8 °F 29% 30.36 in 10.0 mi SW 10.4 mph - N/A   Clear
2:24 PM 44.6 °F 41.4 °F 14.0 °F 29% 30.36 in 10.0 mi SW 5.8 mph - N/A   Clear
2:44 PM 46.4 °F 44.3 °F 15.8 °F 29% 30.35 in 10.0 mi SW 4.6 mph - N/A   Clear
3:04 PM 46.4 °F 44.3 °F 15.8 °F 29% 30.36 in 10.0 mi SW 4.6 mph - N/A   Clear
3:24 PM 46.4 °F 43.5 °F 15.8 °F 29% 30.36 in 10.0 mi SSW 5.8 mph - N/A   Clear
3:44 PM 46.4 °F 42.4 °F 15.8 °F 29% 30.36 in 10.0 mi WSW 8.1 mph - N/A   Clear
4:04 PM 46.4 °F 41.9 °F 14.0 °F 27% 30.36 in 10.0 mi SW 9.2 mph - N/A   Clear
4:24 PM 46.4 °F 42.9 °F 15.8 °F 29% 30.35 in 10.0 mi SW 6.9 mph - N/A   Clear
4:44 PM 46.4 °F 43.5 °F 15.8 °F 29% 30.35 in 10.0 mi SW 5.8 mph - N/A   Clear
5:04 PM 44.6 °F 40.7 °F 15.8 °F 31% 30.35 in 10.0 mi SW 6.9 mph - N/A   Clear
5:24 PM 42.8 °F 40.1 °F 15.8 °F 34% 30.35 in 10.0 mi SW 4.6 mph - N/A   Clear
5:44 PM 39.2 °F 35.0 °F 17.6 °F 42% 30.35 in 10.0 mi SW 5.8 mph - N/A   Clear
6:04 PM 39.2 °F 35.9 °F 17.6 °F 42% 30.35 in 10.0 mi SSW 4.6 mph - N/A   Clear
6:24 PM 37.4 °F 32.1 °F 17.6 °F 45% 30.35 in 10.0 mi SSW 6.9 mph - N/A   Clear
6:44 PM 37.4 °F 32.8 °F 17.6 °F 45% 30.35 in 10.0 mi SSW 5.8 mph - N/A   Clear
7:04 PM 37.4 °F 34.9 °F 19.4 °F 48% 30.35 in 10.0 mi South 3.5 mph - N/A   Clear
7:24 PM 35.6 °F 29.9 °F 19.4 °F 52% 30.36 in 10.0 mi South 6.9 mph - N/A   Clear
7:44 PM 35.6 °F 30.7 °F 19.4 °F 52% 30.36 in 10.0 mi SSW 5.8 mph - N/A   Clear
8:04 PM 35.6 °F 29.9 °F 19.4 °F 52% 30.36 in 10.0 mi South 6.9 mph - N/A   Clear
8:24 PM 33.8 °F 27.0 °F 19.4 °F 56% 30.35 in 10.0 mi South 8.1 mph - N/A   Clear
8:44 PM 35.6 °F 30.7 °F 19.4 °F 52% 30.35 in 10.0 mi South 5.8 mph - N/A   Clear
9:04 PM 35.6 °F 30.7 °F 19.4 °F 52% 30.35 in 10.0 mi South 5.8 mph - N/A   Clear
9:24 PM 35.6 °F 29.9 °F 19.4 °F 52% 30.36 in 10.0 mi South 6.9 mph - N/A   Clear
9:44 PM 35.6 °F 29.9 °F 19.4 °F 52% 30.36 in 10.0 mi South 6.9 mph - N/A   Clear
10:04 PM 33.8 °F 28.6 °F 19.4 °F 56% 30.37 in 10.0 mi South 5.8 mph - N/A   Clear
10:24 PM 33.8 °F 26.4 °F 19.4 °F 56% 30.36 in 10.0 mi South 9.2 mph - N/A   Clear
10:44 PM 33.8 °F 27.0 °F 19.4 °F 56% 30.36 in 10.0 mi South 8.1 mph - N/A   Clear
11:04 PM 33.8 °F 27.7 °F 19.4 °F 56% 30.36 in 10.0 mi South 6.9 mph - N/A   Clear
11:24 PM 33.8 °F 26.4 °F 19.4 °F 56% 30.35 in 10.0 mi South 9.2 mph - N/A   Clear
11:44 PM 33.8 °F 27.0 °F 19.4 °F 56% 30.36 in 10.0 mi South 8.1 mph - N/A   Clear